[[{"header":{"parameterUnit":"m.s-1","parameterCategory":1,"la1":30.2991,"la2":30.254,"lo1":-89.0895,"lo2":-89.0444,"dx":0.0017,"dy":0.0017,"nx":28,"ny":28,"refTime":"2022-11-04T21:00:00:Z","depth":0,"parameterNumber":2,"parameterNumberName":"U-component_of_WINDS"},"data":[0,0,0,0,0,0,0,0,0,0,0,0,0,0,0,0,0,0,0,0,0,0,0,0,0,0,0,0,0,0,0,0,0,0,0,0,0,0,0,0,0,0,0,0,0,0,0,0,0,0,0,0,0,0,0,0,0,0,-1.2604,-1.2604,0,-1.2572,-1.2572,-1.2572,-1.2547,-1.2546,-1.2546,-1.2546,-1.2514,-1.2514,-1.2513,0,0,0,0,0,0,0,0,0,0,0,0,0,-1.2644,-1.2643,-1.2604,-1.2604,-1.2603,-1.2573,-1.2572,-1.2572,-1.2547,-1.2546,-1.2546,-1.2546,-1.2514,-1.2514,-1.2513,0,0,0,0,0,0,0,0,0,0,0,0,0,-1.2621,-1.2643,-1.2604,-1.2587,-1.2585,-1.2573,-1.2572,-1.2572,-1.2547,-1.2546,-1.2546,-1.2546,-1.2515,-1.2514,-1.2513,-1.2515,0,0,-1.251,-1.251,0,0,0,0,0,0,0,0,-1.2622,-1.2619,-1.259,-1.2588,-1.2586,-1.2563,-1.2574,-1.2552,-1.2547,-1.2562,-1.2546,-1.2546,-1.2531,-1.2529,-1.2523,-1.2513,-1.2512,-1.251,-1.2509,-1.2509,-1.2509,0,0,0,0,0,0,0,-1.2624,-1.262,-1.2592,-1.259,-1.2587,-1.2581,-1.2578,-1.257,-1.2549,-1.256,-1.2558,-1.2555,-1.253,-1.2524,-1.2523,-1.2511,-1.251,-1.2509,-1.2509,-1.2508,-1.25,-1.25,0,0,0,0,0,0,-1.2628,-1.2622,-1.2593,-1.2591,-1.2604,-1.2581,-1.2577,-1.2571,-1.2549,-1.2545,-1.2555,-1.2554,-1.2526,-1.2524,-1.2521,-1.2521,-1.2509,-1.2508,-1.2508,-1.2499,-1.25,-1.25,0,0,0,0,0,0,-1.2629,-1.2625,-1.2594,-1.2606,-1.2601,-1.2581,-1.2574,-1.2571,-1.2565,-1.2545,-1.2541,-1.2554,-1.2526,-1.2523,-1.2516,-1.252,-1.2508,-1.2507,-1.2499,-1.25,-1.25,-1.2521,0,0,0,0,0,0,-1.263,-1.2626,-1.2626,-1.2606,-1.2601,-1.2589,-1.2575,-1.257,-1.2564,-1.2561,-1.2542,-1.2539,-1.2525,-1.2518,-1.2515,-1.2518,-1.2506,-1.2499,-1.2499,-1.25,-1.252,-1.2522,-1.2524,0,0,0,0,0,-1.2631,-1.2634,-1.2626,-1.2623,-1.2601,-1.259,-1.2587,-1.2571,-1.2564,-1.2564,-1.2551,-1.2539,-1.252,-1.2517,-1.2514,-1.2517,-1.2498,-1.2499,-1.25,-1.2519,-1.2522,-1.2524,0,0,0,0,0,0,-1.2655,-1.2631,-1.2622,-1.2618,-1.2606,-1.2585,-1.2585,-1.2574,-1.2564,-1.2562,-1.2543,-1.2539,-1.2535,-1.2525,-1.2523,-1.2517,-1.2508,-1.2508,-1.2523,-1.2525,-1.2527,-1.2529,-1.2505,0,0,0,0,0,-1.266,-1.2653,-1.2632,-1.2631,-1.2625,-1.2606,-1.2601,-1.2589,-1.2576,-1.2571,-1.2557,-1.2545,-1.2536,-1.253,-1.2521,-1.2519,-1.2514,-1.2519,-1.2521,-1.2523,-1.2523,-1.252,-1.2522,-1.2503,-1.2503,-1.2503,0,0,-1.267,-1.2656,-1.2653,-1.2635,-1.2624,-1.2617,-1.2602,-1.2595,-1.2589,-1.257,-1.2562,-1.2552,-1.2537,-1.2533,-1.253,-1.2525,-1.2527,-1.2524,-1.2525,-1.2524,-1.2521,-1.2523,-1.2524,-1.2503,-1.2503,-1.2503,0,0,-1.2684,-1.2673,-1.267,-1.2659,-1.2643,-1.263,-1.263,-1.2611,-1.2603,-1.2595,-1.258,-1.2573,-1.2558,-1.2548,-1.254,-1.255,-1.2539,-1.2548,-1.2558,-1.2556,-1.2557,-1.2558,-1.2561,-1.2562,-1.2548,-1.2548,-1.2548,0,-1.2699,-1.2687,-1.267,-1.2664,-1.2656,-1.2638,-1.2634,-1.2625,-1.2606,-1.2602,-1.2596,-1.2576,-1.2565,-1.2557,-1.2559,-1.2554,-1.2553,-1.2549,-1.2558,-1.2559,-1.256,-1.2562,-1.2564,-1.2549,-1.2549,-1.2549,-1.2549,0,-1.2705,-1.2697,-1.2697,-1.2679,-1.2671,-1.2666,-1.2648,-1.2643,-1.2632,-1.262,-1.2612,-1.2598,-1.2585,-1.2583,-1.2573,-1.2573,-1.257,-1.2562,-1.2552,-1.2563,-1.2565,-1.2566,-1.2551,-1.255,-1.255,-1.255,0,0,-1.2733,-1.2705,-1.2705,-1.2696,-1.2677,-1.2671,-1.2665,-1.2652,-1.2647,-1.2635,-1.2629,-1.2617,-1.2609,-1.26,-1.2589,-1.2587,-1.2594,-1.2579,-1.2578,-1.2581,-1.2593,-1.2599,-1.26,-1.2587,-1.2587,-1.2587,-1.2594,0,-1.2743,-1.2731,-1.2716,-1.2709,-1.2701,-1.2683,-1.2678,-1.2666,-1.2655,-1.2646,-1.2634,-1.2625,-1.2615,-1.261,-1.2607,-1.2594,-1.2596,-1.2593,-1.2581,-1.2581,-1.2584,-1.2601,-1.2607,-1.2614,-1.2595,-1.2595,-1.2595,0,-1.2753,-1.2741,-1.2734,-1.2714,-1.2711,-1.2706,-1.2692,-1.2685,-1.267,-1.2662,-1.2653,-1.264,-1.2633,-1.2625,-1.2614,-1.2613,-1.2607,-1.26,-1.26,-1.2597,-1.2588,-1.2598,-1.2616,-1.2617,-1.2596,-1.2596,-1.2596,0,-1.2773,-1.2756,-1.2749,-1.2742,-1.2719,-1.2716,-1.2707,-1.2692,-1.2685,-1.2673,-1.2668,-1.2656,-1.2649,-1.264,-1.2624,-1.2619,-1.2615,-1.2605,-1.2608,-1.2608,-1.2607,-1.2607,-1.2623,-1.2605,-1.2605,-1.2605,-1.2605,0,-1.2785,-1.2781,-1.2757,-1.2753,-1.2747,-1.273,-1.2725,-1.2714,-1.27,-1.2693,-1.2678,-1.2672,-1.2652,-1.2643,-1.2631,-1.2624,-1.2621,-1.2614,-1.2611,-1.2615,-1.2616,-1.261,-1.2609,-1.2605,-1.2605,-1.2605,-1.2605,0,-1.2806,-1.279,-1.2781,-1.276,-1.2755,-1.2752,-1.2734,-1.2729,-1.2717,-1.2708,-1.2705,-1.2686,-1.2675,-1.2658,-1.2643,-1.2635,-1.2629,-1.2624,-1.2634,-1.2632,-1.2634,-1.2634,-1.2647,-1.2647,-1.263,-1.263,-1.263,0,-1.2815,-1.2811,-1.279,-1.2784,-1.2775,-1.2765,-1.2758,-1.274,-1.2733,-1.2715,-1.2712,-1.27,-1.2689,-1.2673,-1.2658,-1.2645,-1.264,-1.2645,-1.2638,-1.2642,-1.2639,-1.2639,-1.2638,-1.2647,-1.2647,-1.2647,-1.2647,0,-1.2831,-1.2823,-1.2813,-1.2799,-1.2791,-1.2779,-1.2767,-1.2763,-1.2743,-1.2736,-1.2724,-1.2716,-1.2699,-1.2687,-1.2673,-1.2663,-1.2652,-1.265,-1.2649,-1.2653,-1.2658,-1.2655,-1.2638,-1.2649,-1.2649,-1.2649,-1.2649,-1.2649,-1.2846,-1.2841,-1.2825,-1.2814,-1.2803,-1.2792,-1.2786,-1.2772,-1.2762,-1.2747,-1.2738,-1.2726,-1.2711,-1.2691,-1.2682,-1.2673,-1.2668,-1.2668,-1.2667,-1.2667,-1.2668,-1.2661,-1.267,-1.267,-1.267,-1.267,-1.267,0,-1.286,-1.2849,-1.2839,-1.2822,-1.2813,-1.2803,-1.2789,-1.2782,-1.2772,-1.2759,-1.2749,-1.2735,-1.2723,-1.2707,-1.2694,-1.269,-1.2684,-1.2687,-1.2686,-1.2684,-1.2674,-1.2675,-1.2691,-1.2691,-1.2691,-1.2691,-1.2691,-1.2691,-1.2867,-1.2859,-1.2849,-1.2835,-1.2823,-1.2812,-1.2804,-1.2794,-1.2783,-1.2769,-1.2758,-1.2748,-1.2733,-1.2719,-1.2707,-1.2703,-1.2698,-1.2703,-1.2696,-1.2687,-1.2685,-1.2683,-1.2684,-1.2702,-1.2702,-1.2707,-1.2707,-1.2707]},{"header":{"parameterUnit":"m.s-1","parameterCategory":1,"la1":30.2991,"la2":30.254,"lo1":-89.0895,"lo2":-89.0444,"dx":0.0017,"dy":0.0017,"nx":28,"ny":28,"refTime":"2022-11-04T21:00:00:Z","depth":0,"parameterNumber":3,"parameterNumberName":"V-component_of_WINDS"},"data":[0,0,0,0,0,0,0,0,0,0,0,0,0,0,0,0,0,0,0,0,0,0,0,0,0,0,0,0,0,0,0,0,0,0,0,0,0,0,0,0,0,0,0,0,0,0,0,0,0,0,0,0,0,0,0,0,0,0,0.4687,0.4687,0,0.464,0.464,0.4639,0.4618,0.4618,0.4618,0.4618,0.4567,0.4565,0.4564,0,0,0,0,0,0,0,0,0,0,0,0,0,0.4755,0.4754,0.4687,0.4687,0.4686,0.464,0.464,0.4639,0.4618,0.4618,0.4618,0.4618,0.4567,0.4566,0.4564,0,0,0,0,0,0,0,0,0,0,0,0,0,0.4718,0.4753,0.4687,0.467,0.4668,0.4641,0.464,0.4639,0.4618,0.4618,0.4618,0.4619,0.4568,0.4566,0.4564,0.4548,0,0,0.4557,0.4556,0,0,0,0,0,0,0,0,0.472,0.4716,0.4673,0.4671,0.4669,0.4635,0.4645,0.4608,0.4618,0.4637,0.4618,0.4619,0.4589,0.4585,0.4576,0.4546,0.4544,0.4557,0.4555,0.4555,0.4554,0,0,0,0,0,0,0,0.4723,0.4718,0.4669,0.4673,0.467,0.4664,0.4659,0.4638,0.4613,0.4635,0.4634,0.4629,0.4588,0.4578,0.4575,0.4543,0.4557,0.4555,0.4554,0.4553,0.4496,0.4496,0,0,0,0,0,0,0.4729,0.472,0.467,0.4667,0.4696,0.4662,0.4657,0.4646,0.4613,0.4608,0.4629,0.4628,0.4582,0.4577,0.4573,0.4552,0.4555,0.4553,0.4551,0.4496,0.4496,0.4496,0,0,0,0,0,0,0.473,0.4725,0.4672,0.4693,0.4686,0.4661,0.4649,0.4645,0.4635,0.4608,0.4603,0.4624,0.4582,0.4576,0.4554,0.455,0.4552,0.455,0.4497,0.4496,0.4496,0.4511,0,0,0,0,0,0,0.4732,0.4725,0.472,0.4693,0.4685,0.4656,0.4649,0.4644,0.4632,0.4631,0.4602,0.4597,0.4581,0.4558,0.4552,0.4547,0.4548,0.4497,0.4496,0.4496,0.4511,0.4512,0.4512,0,0,0,0,0,0.4735,0.4726,0.472,0.4714,0.4678,0.4656,0.4651,0.4634,0.4632,0.4626,0.4608,0.4598,0.4552,0.4556,0.4549,0.4544,0.4497,0.4497,0.4496,0.4511,0.4512,0.4512,0,0,0,0,0,0,0.4752,0.4722,0.4715,0.4698,0.468,0.4652,0.4644,0.4635,0.4616,0.4615,0.4594,0.4587,0.4567,0.4553,0.4559,0.4526,0.4523,0.4521,0.4537,0.4537,0.4538,0.4541,0.4546,0,0,0,0,0,0.4754,0.4739,0.4713,0.47,0.4691,0.4669,0.4659,0.4647,0.4627,0.4619,0.46,0.4579,0.456,0.4548,0.4528,0.4509,0.4502,0.4501,0.4502,0.4502,0.4501,0.4489,0.4488,0.4494,0.4494,0.4494,0,0,0.4757,0.4739,0.4731,0.4703,0.4688,0.4672,0.4663,0.4647,0.4634,0.4616,0.4595,0.458,0.4556,0.4535,0.4525,0.4522,0.4498,0.4502,0.4502,0.4501,0.4488,0.4488,0.4487,0.4494,0.4494,0.4494,0,0,0.4756,0.4741,0.4728,0.4713,0.469,0.4675,0.4672,0.4646,0.4636,0.4614,0.46,0.4584,0.4551,0.4534,0.4521,0.4512,0.4502,0.4506,0.4509,0.4497,0.4497,0.4496,0.4492,0.4491,0.4505,0.4505,0.4505,0,0.4763,0.4739,0.4722,0.4707,0.4694,0.4678,0.4664,0.4649,0.4621,0.4612,0.461,0.4568,0.455,0.4525,0.4523,0.4513,0.4508,0.451,0.4498,0.4498,0.4497,0.4493,0.4492,0.4506,0.4506,0.4506,0.4506,0,0.4749,0.4733,0.4725,0.4699,0.4685,0.467,0.465,0.4638,0.4627,0.4612,0.459,0.4568,0.4544,0.4537,0.4526,0.4509,0.4509,0.4503,0.4499,0.4497,0.4493,0.4491,0.4507,0.4507,0.4506,0.4506,0,0,0.4757,0.4722,0.4719,0.4707,0.468,0.4666,0.465,0.4627,0.4617,0.4597,0.4582,0.4555,0.4549,0.4534,0.4521,0.4511,0.4504,0.4505,0.4505,0.4506,0.4484,0.4489,0.4487,0.4497,0.4496,0.4496,0.4486,0,0.4752,0.4724,0.4707,0.4685,0.4669,0.4653,0.4639,0.462,0.4605,0.4588,0.4571,0.4552,0.4546,0.4537,0.4526,0.4507,0.4499,0.4508,0.4482,0.4481,0.4489,0.4485,0.449,0.4482,0.4484,0.4484,0.4484,0,0.4742,0.4724,0.47,0.4675,0.4667,0.4655,0.4632,0.4617,0.4594,0.4584,0.4568,0.4554,0.4535,0.4532,0.4505,0.4511,0.4499,0.4488,0.4487,0.4484,0.4482,0.4482,0.4479,0.4477,0.4481,0.4481,0.4481,0,0.475,0.4719,0.4702,0.4691,0.4661,0.4652,0.4639,0.4617,0.4604,0.4583,0.4575,0.4552,0.4539,0.4521,0.4501,0.4502,0.4475,0.4471,0.4465,0.4466,0.4461,0.4461,0.4455,0.4453,0.4453,0.4453,0.4453,0,0.4746,0.4732,0.4705,0.4694,0.4678,0.4658,0.4642,0.4627,0.4607,0.4591,0.4575,0.4561,0.4536,0.4518,0.4502,0.4481,0.4475,0.4465,0.4461,0.4467,0.4468,0.4459,0.4459,0.4453,0.4453,0.4453,0.4453,0,0.4752,0.4734,0.4713,0.4686,0.4679,0.4668,0.4644,0.4632,0.4616,0.4596,0.4591,0.4565,0.4543,0.4522,0.4491,0.4481,0.446,0.4454,0.4468,0.4466,0.4461,0.4461,0.4449,0.4446,0.4446,0.4446,0.4446,0,0.4751,0.474,0.4712,0.4701,0.4689,0.4671,0.4658,0.4638,0.4625,0.4598,0.4588,0.4565,0.4546,0.4511,0.4489,0.4465,0.4459,0.4456,0.4455,0.4461,0.4459,0.446,0.4458,0.4457,0.4457,0.4457,0.4457,0,0.4751,0.4742,0.4724,0.4703,0.4689,0.4671,0.4652,0.4644,0.4619,0.4605,0.4583,0.4568,0.4537,0.4514,0.4488,0.4472,0.446,0.4457,0.4455,0.446,0.4469,0.4464,0.4469,0.4458,0.4458,0.4458,0.4458,0.4458,0.4753,0.4742,0.4721,0.4702,0.4686,0.4669,0.4656,0.4639,0.462,0.4595,0.4583,0.4561,0.4537,0.4501,0.4485,0.4466,0.4463,0.4459,0.4458,0.4458,0.4459,0.4472,0.4461,0.4461,0.4461,0.4461,0.4461,0,0.4751,0.4737,0.4719,0.4694,0.4679,0.467,0.4648,0.4636,0.4617,0.4596,0.4577,0.4551,0.4528,0.4504,0.448,0.4469,0.4462,0.4463,0.4464,0.446,0.4463,0.4468,0.4468,0.4468,0.4468,0.4468,0.4468,0.4468,0.4749,0.4731,0.4719,0.4692,0.4677,0.4656,0.4644,0.4627,0.4611,0.4583,0.4564,0.4549,0.4527,0.45,0.4478,0.4472,0.4463,0.4465,0.4457,0.446,0.446,0.4459,0.4464,0.4464,0.4464,0.4456,0.4456,0.4455]}]]